| time (UTC) | temp F | wind direction | speed knots | gust knots | rain 1hr in | rain 24hr in | rain mn in | humidity % | barometer mb |
| 20260510074821 | 58 | 229 | 6.1 | 12.2 | 0.00 | 0.00 | 0.00 | 77 | 1016.6 |
| 20260510073328 | 58 | 231 | 7.8 | 12.2 | 0.00 | 0.00 | 0.00 | 76 | 1016.6 |
| 20260510071838 | 58 | 248 | 8.7 | 14.8 | 0.00 | 0.00 | 0.00 | 77 | 1016.6 |
| 20260510070342 | 58 | 251 | 7.8 | 13.0 | 0.00 | 0.00 | 0.00 | 77 | 1016.5 |
| 20260510064831 | 59 | 245 | 9.6 | 14.8 | 0.00 | 0.00 | 0.00 | 75 | 1016.5 |
| 20260510063319 | 60 | 235 | 7.8 | 13.0 | 0.00 | 0.00 | 0.00 | 74 | 1016.4 |
| 20260510061827 | 61 | 237 | 7.0 | 13.0 | 0.00 | 0.00 | 0.00 | 71 | 1016.4 |
| 20260510060336 | 62 | 230 | 5.2 | 11.3 | 0.00 | 0.00 | 0.00 | 70 | 1016.3 |
| 20260510054826 | 62 | 240 | 3.5 | 9.6 | 0.00 | 0.00 | 0.00 | 70 | 1016.4 |
| 20260510053334 | 63 | 242 | 5.2 | 9.6 | 0.00 | 0.00 | 0.00 | 70 | 1016.3 |
| 20260510051822 | 63 | 233 | 7.0 | 14.8 | 0.00 | 0.00 | 0.00 | 69 | 1016.1 |
| 20260510050327 | 64 | 241 | 6.1 | 14.8 | 0.00 | 0.00 | 0.00 | 67 | 1015.9 |
| 20260510044835 | 64 | 243 | 7.0 | 15.6 | 0.00 | 0.00 | 0.00 | 66 | 1015.9 |
| 20260510043323 | 64 | 230 | 8.7 | 12.2 | 0.00 | 0.00 | 0.00 | 65 | 1015.9 |
| 20260510041833 | 65 | 226 | 7.0 | 13.0 | 0.00 | 0.00 | 0.00 | 65 | 1015.7 |
| 20260510040321 | 65 | 238 | 8.7 | 12.2 | 0.00 | 0.00 | 0.00 | 65 | 1015.6 |
| 20260510034831 | 66 | 224 | 7.0 | 11.3 | 0.00 | 0.00 | 0.00 | 63 | 1015.4 |
| 20260510033339 | 67 | 231 | 7.0 | 9.6 | 0.00 | 0.00 | 0.00 | 62 | 1015.3 |
| 20260510031849 | 68 | 230 | 6.1 | 10.4 | 0.00 | 0.00 | 0.00 | 60 | 1015.3 |
| 20260510030332 | 70 | 240 | 6.1 | 9.6 | 0.00 | 0.00 | 0.00 | 55 | 1015.3 |
| 20260510024824 | 72 | 233 | 3.5 | 5.2 | 0.00 | 0.00 | 0.00 | 47 | 1015.2 |
| 20260510023330 | 73 | 306 | 1.7 | 2.6 | 0.00 | 0.00 | 0.00 | 48 | 1015.2 |
| 20260510021838 | 73 | 332 | 0.0 | 0.0 | 0.00 | 0.00 | 0.00 | 46 | 1015.3 |
| 20260510020325 | 74 | 332 | 0.0 | 2.6 | 0.00 | 0.00 | 0.00 | 46 | 1015.2 |
| 20260510014835 | 74 | 319 | 1.7 | 3.5 | 0.00 | 0.00 | 0.00 | 45 | 1015.3 |
| 20260510013346 | 75 | 330 | 1.7 | 3.5 | 0.00 | 0.00 | 0.00 | 42 | 1015.3 |
| 20260510011835 | 75 | 329 | 0.9 | 5.2 | 0.00 | 0.00 | 0.00 | 42 | 1015.6 |
| 20260510010340 | 75 | 6 | 2.6 | 5.2 | 0.00 | 0.00 | 0.00 | 43 | 1015.6 |
| 20260510004829 | 76 | 321 | 2.6 | 4.3 | 0.00 | 0.00 | 0.00 | 45 | 1015.7 |
| 20260510003338 | 76 | 346 | 3.5 | 6.1 | 0.00 | 0.00 | 0.00 | 41 | 1015.9 |
| 20260510001827 | 76 | 320 | 2.6 | 4.3 | 0.00 | 0.00 | 0.00 | 36 | 1016.0 |
| 20260510000318 | 77 | 13 | 1.7 | 6.1 | 0.00 | 0.00 | 0.00 | 35 | 1016.2 |
| 20260509234822 | 77 | 303 | 1.7 | 5.2 | 0.00 | 0.00 | 0.00 | 37 | 1016.3 |
| 20260509233330 | 77 | 338 | 4.3 | 8.7 | 0.00 | 0.00 | 0.00 | 39 | 1016.4 |
| 20260509231834 | 77 | 333 | 1.7 | 6.1 | 0.00 | 0.00 | 0.00 | 41 | 1016.5 |
| 20260509230322 | 77 | 323 | 4.3 | 7.0 | 0.00 | 0.00 | 0.00 | 43 | 1016.7 |
| 20260509224827 | 76 | 322 | 1.7 | 7.8 | 0.00 | 0.00 | 0.00 | 49 | 1016.9 |
| 20260509223336 | 77 | 350 | 7.0 | 10.4 | 0.00 | 0.00 | 0.00 | 49 | 1016.9 |
| 20260509221822 | 77 | 345 | 0.9 | 8.7 | 0.00 | 0.00 | 0.00 | 52 | 1017.2 |
| 20260509220328 | 76 | 353 | 3.5 | 7.8 | 0.00 | 0.00 | 0.00 | 56 | 1017.5 |
| 20260509214830 | 75 | 317 | 3.5 | 8.7 | 0.00 | 0.00 | 0.00 | 56 | 1017.7 |
| 20260509213334 | 75 | 40 | 1.7 | 9.6 | 0.00 | 0.00 | 0.00 | 55 | 1017.9 |
| 20260509211838 | 75 | 360 | 3.5 | 7.8 | 0.00 | 0.00 | 0.00 | 58 | 1018.1 |
| 20260509210347 | 75 | 335 | 4.3 | 7.0 | 0.00 | 0.00 | 0.00 | 58 | 1018.1 |
| 20260509204832 | 74 | 327 | 1.7 | 6.1 | 0.00 | 0.00 | 0.00 | 58 | 1018.3 |
| 20260509203332 | 72 | 342 | 5.2 | 8.7 | 0.00 | 0.00 | 0.00 | 60 | 1018.4 |
| 20260509201818 | 72 | 342 | 1.7 | 5.2 | 0.00 | 0.00 | 0.00 | 59 | 1018.7 |
| 20260509200325 | 71 | 314 | 1.7 | 7.0 | 0.00 | 0.00 | 0.00 | 60 | 1018.8 |
| 20260509194850 | 70 | 321 | 2.6 | 7.0 | 0.00 | 0.00 | 0.00 | 61 | 1019.1 |
| 20260509193333 | 69 | 323 | 5.2 | 8.7 | 0.00 | 0.00 | 0.00 | 62 | 1019.3 |
| 20260509191821 | 68 | 330 | 3.5 | 7.0 | 0.00 | 0.00 | 0.00 | 65 | 1019.4 |
| 20260509190347 | 68 | 320 | 4.3 | 9.6 | 0.00 | 0.00 | 0.00 | 67 | 1019.6 |
| 20260509184832 | 66 | 302 | 1.7 | 7.8 | 0.00 | 0.00 | 0.00 | 72 | 1019.6 |
| 20260509183338 | 65 | 300 | 3.5 | 7.8 | 0.00 | 0.00 | 0.00 | 71 | 1019.8 |
| 20260509181826 | 64 | 310 | 3.5 | 5.2 | 0.00 | 0.00 | 0.00 | 74 | 1019.9 |
| 20260509180350 | 63 | 342 | 4.3 | 8.7 | 0.00 | 0.00 | 0.00 | 74 | 1020.0 |
| 20260509174833 | 62 | 325 | 3.5 | 6.1 | 0.00 | 0.00 | 0.00 | 77 | 1020.1 |
| 20260509173338 | 60 | 308 | 4.3 | 8.7 | 0.00 | 0.00 | 0.00 | 79 | 1020.1 |
| 20260509171820 | 59 | 327 | 4.3 | 8.7 | 0.00 | 0.00 | 0.00 | 79 | 1020.2 |
| 20260509170344 | 58 | 348 | 5.2 | 9.6 | 0.00 | 0.00 | 0.00 | 81 | 1020.3 |
| 20260509164825 | 57 | 329 | 5.2 | 8.7 | 0.00 | 0.00 | 0.00 | 82 | 1020.5 |
| 20260509163336 | 57 | 323 | 5.2 | 9.6 | 0.00 | 0.00 | 0.00 | 84 | 1020.6 |
| 20260509161824 | 56 | 336 | 2.6 | 7.0 | 0.00 | 0.00 | 0.00 | 85 | 1020.7 |
| 20260509160328 | 55 | 321 | 1.7 | 7.8 | 0.00 | 0.00 | 0.00 | 85 | 1021.0 |
| 20260509154837 | 54 | 341 | 5.2 | 7.8 | 0.00 | 0.00 | 0.00 | 87 | 1021.0 |
| 20260509153325 | 54 | 323 | 2.6 | 7.8 | 0.00 | 0.00 | 0.00 | 87 | 1021.1 |
| 20260509151834 | 53 | 326 | 4.3 | 7.0 | 0.00 | 0.00 | 0.00 | 89 | 1021.1 |
| 20260509150338 | 52 | 320 | 3.5 | 6.1 | 0.00 | 0.00 | 0.00 | 90 | 1021.5 |
| 20260509144827 | 52 | 333 | 3.5 | 7.0 | 0.00 | 0.00 | 0.00 | 91 | 1021.5 |
| 20260509143335 | 51 | 344 | 4.3 | 7.8 | 0.00 | 0.00 | 0.00 | 91 | 1021.5 |
| 20260509141823 | 51 | 340 | 3.5 | 6.1 | 0.00 | 0.00 | 0.00 | 93 | 1021.4 |
| 20260509140328 | 50 | 327 | 2.6 | 4.3 | 0.00 | 0.00 | 0.00 | 94 | 1021.3 |
| 20260509134835 | 49 | 327 | 1.7 | 4.3 | 0.00 | 0.00 | 0.00 | 94 | 1021.3 |
| 20260509133340 | 49 | 324 | 1.7 | 5.2 | 0.00 | 0.00 | 0.00 | 94 | 1021.1 |
| 20260509131828 | 48 | 315 | 2.6 | 5.2 | 0.00 | 0.00 | 0.00 | 93 | 1021.2 |
| 20260509130316 | 48 | 309 | 0.9 | 4.3 | 0.00 | 0.00 | 0.00 | 91 | 1021.2 |
| 20260509124823 | 48 | 324 | 2.6 | 3.5 | 0.00 | 0.00 | 0.00 | 91 | 1021.3 |
| 20260509123333 | 49 | 329 | 0.9 | 1.7 | 0.00 | 0.00 | 0.00 | 91 | 1021.3 |
| 20260509121819 | 49 | 327 | 0.9 | 3.5 | 0.00 | 0.00 | 0.00 | 91 | 1021.5 |
| 20260509120323 | 50 | 314 | 2.6 | 4.3 | 0.00 | 0.00 | 0.00 | 91 | 1021.5 |
| 20260509114831 | 50 | 317 | 1.7 | 5.2 | 0.00 | 0.00 | 0.00 | 91 | 1021.5 |
| 20260509113343 | 50 | 329 | 2.6 | 5.2 | 0.00 | 0.00 | 0.00 | 90 | 1021.6 |
| 20260509111827 | 50 | 313 | 3.5 | 6.1 | 0.00 | 0.00 | 0.00 | 91 | 1021.5 |
| 20260509110334 | 50 | 314 | 3.5 | 4.3 | 0.00 | 0.00 | 0.00 | 90 | 1021.6 |
| 20260509104858 | 50 | 323 | 2.6 | 4.3 | 0.00 | 0.00 | 0.00 | 89 | 1021.8 |
| 20260509103323 | 51 | 319 | 1.7 | 4.3 | 0.00 | 0.00 | 0.00 | 88 | 1022.0 |
| 20260509101829 | 51 | 317 | 2.6 | 4.3 | 0.00 | 0.00 | 0.00 | 87 | 1021.9 |
| 20260509100336 | 52 | 314 | 2.6 | 5.2 | 0.00 | 0.00 | 0.00 | 87 | 1022.0 |
| 20260509094823 | 52 | 317 | 2.6 | 5.2 | 0.00 | 0.00 | 0.00 | 86 | 1022.0 |
| 20260509093324 | 53 | 323 | 3.5 | 7.0 | 0.00 | 0.00 | 0.00 | 85 | 1022.2 |
| 20260509091831 | 53 | 327 | 2.6 | 6.1 | 0.00 | 0.00 | 0.00 | 85 | 1022.1 |
| 20260509090321 | 54 | 309 | 3.5 | 7.0 | 0.00 | 0.00 | 0.00 | 85 | 1022.2 |
| 20260509084829 | 54 | 315 | 3.5 | 7.0 | 0.00 | 0.00 | 0.00 | 84 | 1022.3 |
| 20260509083337 | 54 | 317 | 4.3 | 7.8 | 0.00 | 0.00 | 0.00 | 83 | 1022.4 |
| 20260509081821 | 55 | 319 | 4.3 | 8.7 | 0.00 | 0.00 | 0.00 | 83 | 1022.6 |
| 20260509080324 | 55 | 309 | 4.3 | 7.0 | 0.00 | 0.00 | 0.00 | 82 | 1022.5 |